Weather History for Prescott, AZ

Change the Weather History Date:

Saturday, July 14, 2012

  Actual Average Record
Temperature  
Mean Temperature 68 °F 76 °F  
Max Temperature 75 °F 90 °F 100 °F (2003)
Min Temperature 60 °F 62 °F 50 °F (1952)
Degree Days  
Heating Degree Days 0    
Month to date heating degree days  
Since 1 July heating degree days  
Cooling Degree Days 2    
Month to date cooling degree days  
Year to date cooling degree days  
Growing Degree Days 18 (Base 50)    
Moisture  
Dew Point 61 °F    
Average Humidity 88    
Maximum Humidity 94    
Minimum Humidity 62    
Precipitation  
Precipitation 1.84 in 0.07 in 1.84 in (2012)
Month to date precipitation 0.70  
Year to date precipitation 5.63  
Sea Level Pressure  
Sea Level Pressure 30.09 in    
Wind  
Wind Speed 5 mph (South)    
Max Wind Speed 28 mph    
Max Gust Speed 36 mph    
Visibility 7 miles    
Events Fog , Rain , Thunderstorm    
T = Trace of Precipitation, MM = Missing Value Source: NWS Daily Summary

Daily Weather History Graph

Daily Weather History Graph

Search for Another Location

Airport:

Trip Planner

Search our weather history database for the weather conditions in past years. The results will help you decide how hot, cold, wet, or windy it might be!

Date:

Astronomy

Jul. 14, 2012 Rise Set
Actual Time 5:27 AM MST 7:43 PM MST
Civil Twilight 4:58 AM MST 8:12 PM MST
Nautical Twilight 4:23 AM MST 8:47 PM MST
Astronomical Twilight 3:45 AM MST 9:25 PM MST
Moon 1:43 AM MST (7/14) 4:11 PM MST (7/14)
Length of Visible Light 15h 13m
Length of Day
14h 15m
Waning Crescent, 18% of the Moon is Illuminated
Jul 14
Waning Crescent
Jul 18
New
Jul 26
First Quarter
Aug 1
Full
Aug 9
Last Quarter

Hourly Weather History & Observations

Time (MST) Temp. Dew Point Humidity Pressure Visibility Wind Dir Wind Speed Gust Speed Precip Events Conditions
12:53 AM 69.1 °F 60.1 °F 73% 29.97 in 10.0 mi West 3.5 mph - N/A   Mostly Cloudy
1:53 AM 68.0 °F 64.0 °F 87% 29.94 in 8.0 mi NW 4.6 mph - 0.00 in Rain Light Rain
2:53 AM 66.9 °F 64.0 °F 90% 29.92 in 10.0 mi Calm Calm - 0.02 in   Overcast
3:53 AM 66.9 °F 64.0 °F 90% 29.93 in 10.0 mi Calm Calm - 0.01 in   Overcast
4:53 AM 66.2 °F 62.6 °F 88% 30.17 in 10.0 mi SE 5.8 mph - N/A   Mostly Cloudy
5:53 AM 64.9 °F 61.0 °F 87% 29.95 in 10.0 mi SSE 5.8 mph - 0.01 in   Mostly Cloudy
6:53 AM 66.9 °F 63.0 °F 87% 29.96 in 10.0 mi Calm Calm - N/A   Mostly Cloudy
7:21 AM 66.2 °F 62.6 °F 88% 30.20 in 10.0 mi West 3.5 mph - N/A Thunderstorm Thunderstorm
7:53 AM 66.9 °F 64.0 °F 90% 29.99 in 10.0 mi NNW 3.5 mph - 0.02 in Rain , Thunderstorm Light Thunderstorms and Rain
8:28 AM 62.6 °F 60.8 °F 94% 30.23 in 7.0 mi SSE 6.9 mph - 0.08 in Rain , Thunderstorm Thunderstorms and Rain
8:53 AM 62.1 °F 60.1 °F 93% 30.02 in 3.0 mi South 4.6 mph - 0.24 in Rain Rain
9:00 AM 62.6 °F 60.8 °F 94% 30.23 in 2.0 mi SE 6.9 mph - 0.14 in Rain Rain
9:42 AM 62.6 °F 60.8 °F 94% 30.24 in 10.0 mi Calm Calm - 0.31 in Rain Light Rain
9:48 AM 62.6 °F 60.8 °F 94% 30.24 in 10.0 mi Calm Calm - 0.31 in Rain Light Rain
9:53 AM 62.1 °F 60.1 °F 93% 30.03 in 10.0 mi Calm Calm - 0.31 in Rain , Thunderstorm Light Thunderstorms and Rain
10:21 AM 62.6 °F 60.8 °F 94% 30.24 in 2.0 mi SE 9.2 mph - 0.05 in Rain , Thunderstorm Thunderstorms and Rain
10:29 AM 62.6 °F 60.8 °F 94% 30.24 in 1.2 mi Calm Calm - 0.10 in Rain , Thunderstorm Thunderstorms and Rain
10:34 AM 62.6 °F 60.8 °F 94% 30.25 in 3.0 mi North 3.5 mph - 0.11 in Rain , Thunderstorm Thunderstorms and Rain
10:41 AM 62.6 °F 60.8 °F 94% 30.25 in 4.0 mi Calm Calm - 0.11 in Rain Light Rain
10:50 AM 64.4 °F 62.6 °F 94% 30.24 in 4.0 mi Variable 3.5 mph - 0.11 in Rain Light Rain
10:53 AM 64.0 °F 62.1 °F 93% 30.03 in 4.0 mi Variable 3.5 mph - 0.11 in Rain Light Rain
11:26 AM 64.4 °F 62.6 °F 94% 30.24 in 4.0 mi ENE 3.5 mph - 0.02 in Rain Light Rain
11:53 AM 66.2 °F 62.1 °F 86% 30.03 in 5.0 mi Variable 3.5 mph - 0.02 in Rain Light Rain
12:00 PM 66.2 °F 62.6 °F 88% 30.24 in 5.0 mi East 3.5 mph - 0.01 in Rain , Thunderstorm Light Thunderstorms and Rain
12:53 PM 66.9 °F 63.0 °F 87% 30.01 in 7.0 mi East 6.9 mph - 0.01 in   Mostly Cloudy
1:53 PM 72.0 °F 61.0 °F 68% 29.96 in 10.0 mi SE 6.9 mph - N/A   Scattered Clouds
2:53 PM 75.0 °F 61.0 °F 62% 29.93 in 10.0 mi SE 6.9 mph - N/A   Mostly Cloudy
3:53 PM 71.1 °F 62.1 °F 73% 29.96 in 5.0 mi West 24.2 mph 31.1 mph 0.02 in Rain Light Rain
3:56 PM 66.2 °F 59.0 °F 78% 30.18 in 1.5 mi West 27.6 mph 34.5 mph 0.06 in Rain Heavy Rain
4:04 PM 60.8 °F 57.2 °F 88% 30.19 in 0.5 mi West 23.0 mph 35.7 mph 0.41 in Fog , Rain Heavy Rain
4:11 PM 62.6 °F 57.2 °F 82% 30.16 in 0.5 mi NNW 10.4 mph 33.4 mph 0.68 in Rain Heavy Rain
4:17 PM 62.6 °F 57.2 °F 82% 30.15 in 10.0 mi North 12.7 mph 20.7 mph 0.68 in Rain Light Rain
4:53 PM 63.0 °F 57.9 °F 84% 29.96 in 10.0 mi South 5.8 mph - 0.69 in Rain Light Rain
5:53 PM 63.0 °F 59.0 °F 87% 30.00 in 3.0 mi SSE 9.2 mph - 0.06 in Rain Rain
6:53 PM 63.0 °F 61.0 °F 93% 30.04 in 10.0 mi SSW 13.8 mph - 0.10 in Rain , Thunderstorm Light Thunderstorms and Rain
7:00 PM 62.6 °F 60.8 °F 94% 30.24 in 6.0 mi South 13.8 mph 26.5 mph 0.00 in Rain , Thunderstorm Light Thunderstorms and Rain
7:53 PM 62.1 °F 59.0 °F 90% 30.02 in 4.0 mi Calm Calm - 0.16 in Rain Rain
8:53 PM 61.0 °F 59.0 °F 93% 30.01 in 10.0 mi South 3.5 mph - 0.05 in   Clear
9:53 PM 61.0 °F 59.0 °F 93% 30.03 in 10.0 mi Calm Calm - N/A   Mostly Cloudy
10:53 PM 62.1 °F 57.9 °F 86% 30.00 in 10.0 mi North 3.5 mph - 0.00 in Rain Light Rain
11:53 PM 61.0 °F 59.0 °F 93% 29.99 in 10.0 mi NNW 3.5 mph - 0.01 in   Partly Cloudy